Location: Unspecified
(41.5000°N, 0.0000°E)
Time: 19:12:56
(UTC+00:00)

Vanguard 2 - Pass Details

Date: 24 June 2019
Orbit: 553 x 2938 km, 32.9° (Epoch: 20 August)

Event Time Altitude Azimuth Distance (km) Brightness Sun altitude
Rises 14:51:17 0° 261° (W) 5,048 12.3 50.6°
Reaches altitude 10° 14:57:11 10° 237° (WSW) 4,587 12.3 49.5°
Maximum altitude 15:02:13 13° 214° (SW) 4,715 12.2 48.6°
Drops below altitude 10° 15:07:56 10° 192° (SSW) 5,322 12.1 47.5°
Sets 15:16:23 0° 169° (S) 6,674 12.3 46.0°
